| time (UTC) | temp F | wind direction | speed knots | gust knots | rain 1hr in | rain 24hr in | rain mn in | humidity % | barometer mb |
| 20260504223404 | 80 | 197 | 2.6 | 8.7 | 0.00 | 0.00 | 0.00 | 20 | 1012.6 |
| 20260504222903 | 80 | 259 | 2.6 | 10.4 | 0.00 | 0.00 | 0.00 | 20 | 1012.7 |
| 20260504222405 | 80 | 248 | 4.3 | 10.4 | 0.00 | 0.00 | 0.00 | 19 | 1012.6 |
| 20260504221904 | 81 | 229 | 2.6 | 7.8 | 0.00 | 0.00 | 0.00 | 19 | 1012.7 |
| 20260504221405 | 81 | 250 | 1.7 | 7.0 | 0.00 | 0.00 | 0.00 | 20 | 1012.6 |
| 20260504220903 | 81 | 224 | 2.6 | 7.0 | 0.00 | 0.00 | 0.00 | 19 | 1012.6 |
| 20260504220403 | 81 | 224 | 2.6 | 7.8 | 0.00 | 0.00 | 0.00 | 19 | 1012.6 |
| 20260504215904 | 81 | 247 | 2.6 | 7.8 | 0.00 | 0.00 | 0.00 | 19 | 1012.9 |
| 20260504215403 | 81 | 227 | 2.6 | 7.0 | 0.00 | 0.00 | 0.00 | 19 | 1013.0 |
| 20260504214904 | 82 | 231 | 2.6 | 7.8 | 0.00 | 0.00 | 0.00 | 18 | 1013.0 |
| 20260504214404 | 82 | 236 | 2.6 | 8.7 | 0.00 | 0.00 | 0.00 | 18 | 1012.8 |
| 20260504213903 | 82 | 222 | 2.6 | 8.7 | 0.00 | 0.00 | 0.00 | 18 | 1012.8 |
| 20260504213404 | 82 | 207 | 3.5 | 11.3 | 0.00 | 0.00 | 0.00 | 17 | 1012.7 |
| 20260504212903 | 82 | 205 | 2.6 | 11.3 | 0.00 | 0.00 | 0.00 | 17 | 1012.6 |
| 20260504212404 | 83 | 204 | 1.7 | 8.7 | 0.00 | 0.00 | 0.00 | 17 | 1012.6 |
| 20260504211404 | 83 | 240 | 2.6 | 7.8 | 0.00 | 0.00 | 0.00 | 18 | 1012.6 |
| 20260504210403 | 82 | 266 | 1.7 | 6.1 | 0.00 | 0.00 | 0.00 | 18 | 1012.5 |
| 20260504205903 | 82 | 218 | 2.6 | 7.0 | 0.00 | 0.00 | 0.00 | 18 | 1012.7 |
| 20260504205405 | 82 | 217 | 1.7 | 8.7 | 0.00 | 0.00 | 0.00 | 18 | 1012.8 |
| 20260504204403 | 83 | 207 | 1.7 | 5.2 | 0.00 | 0.00 | 0.00 | 18 | 1012.6 |
| 20260504203903 | 83 | 232 | 1.7 | 4.3 | 0.00 | 0.00 | 0.00 | 21 | 1012.7 |
| 20260504203403 | 82 | 90 | 0.9 | 6.1 | 0.00 | 0.00 | 0.00 | 21 | 1012.5 |
| 20260504202903 | 82 | 189 | 1.7 | 10.4 | 0.00 | 0.00 | 0.00 | 21 | 1012.5 |
| 20260504202405 | 83 | 241 | 5.2 | 10.4 | 0.00 | 0.00 | 0.00 | 20 | 1012.7 |
| 20260504201903 | 83 | 217 | 0.9 | 7.8 | 0.00 | 0.00 | 0.00 | 21 | 1012.4 |
| 20260504201404 | 82 | 271 | 1.7 | 7.8 | 0.00 | 0.00 | 0.00 | 21 | 1012.5 |
| 20260504200903 | 83 | 255 | 0.9 | 2.6 | 0.00 | 0.00 | 0.00 | 20 | 1012.6 |
| 20260504200404 | 82 | 315 | 0.9 | 5.2 | 0.00 | 0.00 | 0.00 | 19 | 1012.5 |
| 20260504195904 | 82 | 248 | 1.7 | 8.7 | 0.00 | 0.00 | 0.00 | 19 | 1012.5 |
| 20260504195404 | 82 | 254 | 1.7 | 8.7 | 0.00 | 0.00 | 0.00 | 19 | 1012.7 |
| 20260504194903 | 82 | 231 | 4.3 | 8.7 | 0.00 | 0.00 | 0.00 | 18 | 1012.8 |
| 20260504194403 | 81 | 240 | 2.6 | 7.8 | 0.00 | 0.00 | 0.00 | 18 | 1012.7 |
| 20260504193903 | 81 | 209 | 1.7 | 5.2 | 0.00 | 0.00 | 0.00 | 19 | 1012.6 |
| 20260504193404 | 81 | 205 | 1.7 | 6.1 | 0.00 | 0.00 | 0.00 | 19 | 1012.6 |
| 20260504192904 | 81 | 178 | 1.7 | 7.0 | 0.00 | 0.00 | 0.00 | 19 | 1012.5 |
| 20260504192405 | 81 | 197 | 1.7 | 7.0 | 0.00 | 0.00 | 0.00 | 19 | 1012.4 |
| 20260504191903 | 80 | 109 | 0.9 | 7.8 | 0.00 | 0.00 | 0.00 | 20 | 1012.4 |
| 20260504191403 | 81 | 113 | 1.7 | 7.8 | 0.00 | 0.00 | 0.00 | 20 | 1012.5 |
| 20260504190904 | 81 | 192 | 1.7 | 7.8 | 0.00 | 0.00 | 0.00 | 20 | 1012.5 |
| 20260504190403 | 81 | 197 | 2.6 | 7.8 | 0.00 | 0.00 | 0.00 | 20 | 1012.5 |
| 20260504184904 | 81 | 228 | 1.7 | 7.0 | 0.00 | 0.00 | 0.00 | 20 | 1012.6 |
| 20260504184404 | 81 | 245 | 2.6 | 10.4 | 0.00 | 0.00 | 0.00 | 20 | 1012.8 |
| 20260504183904 | 81 | 219 | 4.3 | 10.4 | 0.00 | 0.00 | 0.00 | 20 | 1012.9 |
| 20260504183404 | 82 | 216 | 3.5 | 6.1 | 0.00 | 0.00 | 0.00 | 20 | 1013.0 |
| 20260504182904 | 81 | 229 | 2.6 | 6.1 | 0.00 | 0.00 | 0.00 | 20 | 1013.1 |
| 20260504182403 | 81 | 164 | 1.7 | 6.1 | 0.00 | 0.00 | 0.00 | 21 | 1013.3 |
| 20260504181904 | 80 | 207 | 2.6 | 6.1 | 0.00 | 0.00 | 0.00 | 21 | 1013.4 |
| 20260504181404 | 80 | 188 | 1.7 | 7.0 | 0.00 | 0.00 | 0.00 | 22 | 1013.4 |
| 20260504180904 | 79 | 197 | 2.6 | 7.0 | 0.00 | 0.00 | 0.00 | 22 | 1013.3 |
| 20260504180404 | 80 | 205 | 3.5 | 7.0 | 0.00 | 0.00 | 0.00 | 22 | 1013.4 |
| 20260504175904 | 80 | 213 | 2.6 | 7.8 | 0.00 | 0.00 | 0.00 | 21 | 1013.4 |
| 20260504175405 | 80 | 226 | 2.6 | 7.8 | 0.00 | 0.00 | 0.00 | 21 | 1013.4 |
| 20260504174404 | 80 | 219 | 2.6 | 8.7 | 0.00 | 0.00 | 0.00 | 21 | 1013.2 |
| 20260504173404 | 80 | 240 | 4.3 | 10.4 | 0.00 | 0.00 | 0.00 | 23 | 1013.3 |
| 20260504172903 | 80 | 227 | 5.2 | 8.7 | 0.00 | 0.00 | 0.00 | 23 | 1013.4 |
| 20260504172403 | 80 | 213 | 3.5 | 8.7 | 0.00 | 0.00 | 0.00 | 23 | 1013.4 |
| 20260504171904 | 80 | 196 | 1.7 | 7.8 | 0.00 | 0.00 | 0.00 | 23 | 1013.4 |
| 20260504171405 | 80 | 236 | 4.3 | 7.8 | 0.00 | 0.00 | 0.00 | 22 | 1013.4 |
| 20260504170903 | 79 | 145 | 2.6 | 5.2 | 0.00 | 0.00 | 0.00 | 25 | 1013.4 |
| 20260504170404 | 80 | 168 | 1.7 | 7.0 | 0.00 | 0.00 | 0.00 | 25 | 1013.4 |
| 20260504150404 | 75 | 117 | 2.6 | 7.8 | 0.00 | 0.00 | 0.00 | 31 | 1013.3 |
| 20260504140903 | 72 | 166 | 0.9 | 5.2 | 0.00 | 0.00 | 0.00 | 33 | 1013.2 |
| 20260504130404 | 70 | 117 | 1.7 | 2.6 | 0.00 | 0.00 | 0.00 | 34 | 1012.4 |
| 20260504110404 | 71 | 101 | 0.0 | 1.7 | 0.00 | 0.00 | 0.00 | 34 | 1011.7 |
| 20260504100404 | 72 | 195 | 0.9 | 2.6 | 0.00 | 0.00 | 0.00 | 33 | 1011.9 |
| 20260504081904 | 71 | 104 | 0.0 | 1.7 | 0.00 | 0.00 | 0.00 | 31 | 1011.6 |
| 20260504081404 | 72 | 121 | 0.0 | 1.7 | 0.00 | 0.00 | 0.00 | 30 | 1011.6 |
| 20260504080904 | 72 | 129 | 0.0 | 1.7 | 0.00 | 0.00 | 0.00 | 31 | 1011.7 |
| 20260504080404 | 72 | 164 | 0.0 | 1.7 | 0.00 | 0.00 | 0.00 | 32 | 1011.6 |
| 20260504070404 | 75 | 216 | 0.9 | 2.6 | 0.00 | 0.00 | 0.00 | 28 | 1011.9 |
| 20260504045904 | 77 | 216 | 2.6 | 8.7 | 0.00 | 0.00 | 0.00 | 27 | 1012.3 |
| 20260504045404 | 77 | 209 | 3.5 | 7.8 | 0.00 | 0.00 | 0.00 | 27 | 1012.4 |
| 20260504044403 | 77 | 216 | 2.6 | 7.8 | 0.00 | 0.00 | 0.00 | 27 | 1012.3 |
| 20260504042904 | 78 | 210 | 4.3 | 10.4 | 0.00 | 0.00 | 0.00 | 26 | 1012.2 |
| 20260504042405 | 78 | 216 | 2.6 | 7.8 | 0.00 | 0.00 | 0.00 | 25 | 1012.1 |
| 20260504041904 | 78 | 202 | 3.5 | 13.9 | 0.00 | 0.00 | 0.00 | 24 | 1012.0 |
| 20260504041403 | 78 | 211 | 4.3 | 13.9 | 0.00 | 0.00 | 0.00 | 24 | 1012.2 |
| 20260504040903 | 78 | 218 | 4.3 | 13.9 | 0.00 | 0.00 | 0.00 | 24 | 1012.1 |
| 20260504035904 | 78 | 216 | 5.2 | 11.3 | 0.00 | 0.00 | 0.00 | 23 | 1011.7 |
| 20260504035403 | 79 | 219 | 5.2 | 12.2 | 0.00 | 0.00 | 0.00 | 22 | 1011.6 |
| 20260504034904 | 79 | 219 | 4.3 | 12.2 | 0.00 | 0.00 | 0.00 | 22 | 1011.3 |
| 20260504034403 | 79 | 216 | 5.2 | 14.8 | 0.00 | 0.00 | 0.00 | 21 | 1011.4 |
| 20260504033904 | 79 | 201 | 4.3 | 14.8 | 0.00 | 0.00 | 0.00 | 20 | 1011.1 |
| 20260504033404 | 79 | 221 | 5.2 | 13.9 | 0.00 | 0.00 | 0.00 | 19 | 1010.9 |
| 20260504032904 | 80 | 216 | 5.2 | 10.4 | 0.00 | 0.00 | 0.00 | 19 | 1010.9 |
| 20260504031404 | 80 | 172 | 3.5 | 8.7 | 0.00 | 0.00 | 0.00 | 18 | 1010.8 |
| 20260504030404 | 81 | 198 | 2.6 | 10.4 | 0.00 | 0.00 | 0.00 | 17 | 1010.5 |
| 20260504025904 | 81 | 206 | 4.3 | 10.4 | 0.00 | 0.00 | 0.00 | 17 | 1010.4 |
| 20260504025404 | 81 | 196 | 4.3 | 8.7 | 0.00 | 0.00 | 0.00 | 16 | 1010.2 |
| 20260504024904 | 81 | 214 | 2.6 | 7.8 | 0.00 | 0.00 | 0.00 | 16 | 1010.1 |
| 20260504024405 | 82 | 227 | 2.6 | 11.3 | 0.00 | 0.00 | 0.00 | 15 | 1010.0 |
| 20260504023904 | 82 | 225 | 1.7 | 11.3 | 0.00 | 0.00 | 0.00 | 15 | 1009.9 |
| 20260504023404 | 82 | 235 | 3.5 | 11.3 | 0.00 | 0.00 | 0.00 | 15 | 1009.7 |
| 20260504022904 | 82 | 216 | 5.2 | 10.4 | 0.00 | 0.00 | 0.00 | 14 | 1009.7 |
| 20260504022404 | 83 | 236 | 2.6 | 8.7 | 0.00 | 0.00 | 0.00 | 14 | 1009.6 |
| 20260504021904 | 83 | 214 | 1.7 | 7.0 | 0.00 | 0.00 | 0.00 | 14 | 1009.5 |
| 20260504021403 | 83 | 227 | 2.6 | 7.0 | 0.00 | 0.00 | 0.00 | 14 | 1009.5 |
| 20260504020904 | 83 | 215 | 3.5 | 7.8 | 0.00 | 0.00 | 0.00 | 13 | 1009.5 |
| 20260504015904 | 84 | 241 | 4.3 | 10.4 | 0.00 | 0.00 | 0.00 | 13 | 1009.3 |
| 20260504015404 | 84 | 231 | 1.7 | 10.4 | 0.00 | 0.00 | 0.00 | 13 | 1009.2 |
| 20260504014903 | 84 | 224 | 3.5 | 12.2 | 0.00 | 0.00 | 0.00 | 12 | 1009.1 |
| 20260504014403 | 85 | 238 | 5.2 | 12.2 | 0.00 | 0.00 | 0.00 | 12 | 1009.0 |
| 20260504013904 | 85 | 222 | 4.3 | 10.4 | 0.00 | 0.00 | 0.00 | 12 | 1009.1 |
| 20260504013405 | 85 | 223 | 1.7 | 7.8 | 0.00 | 0.00 | 0.00 | 12 | 1009.1 |
| 20260504012904 | 86 | 231 | 2.6 | 12.2 | 0.00 | 0.00 | 0.00 | 12 | 1008.9 |
| 20260504012404 | 86 | 226 | 5.2 | 12.2 | 0.00 | 0.00 | 0.00 | 12 | 1008.8 |
| 20260504011904 | 86 | 230 | 5.2 | 11.3 | 0.00 | 0.00 | 0.00 | 11 | 1008.6 |
| 20260504011403 | 86 | 238 | 5.2 | 13.0 | 0.00 | 0.00 | 0.00 | 11 | 1008.8 |
| 20260504010404 | 87 | 222 | 5.2 | 13.0 | 0.00 | 0.00 | 0.00 | 11 | 1009.2 |
| 20260504005904 | 87 | 222 | 5.2 | 13.9 | 0.00 | 0.00 | 0.00 | 11 | 1009.1 |
| 20260504004403 | 88 | 233 | 4.3 | 13.0 | 0.00 | 0.00 | 0.00 | 11 | 1009.1 |
| 20260504003404 | 89 | 220 | 4.3 | 10.4 | 0.00 | 0.00 | 0.00 | 11 | 1009.1 |
| 20260504002404 | 89 | 235 | 6.1 | 12.2 | 0.00 | 0.00 | 0.00 | 11 | 1009.1 |
| 20260504001905 | 89 | 225 | 6.1 | 12.2 | 0.00 | 0.00 | 0.00 | 10 | 1009.0 |
| 20260504001404 | 89 | 226 | 7.0 | 15.6 | 0.00 | 0.00 | 0.00 | 10 | 1009.0 |
| 20260504000904 | 89 | 230 | 7.8 | 15.6 | 0.00 | 0.00 | 0.00 | 10 | 1009.0 |
| 20260504000404 | 89 | 229 | 6.1 | 14.8 | 0.00 | 0.00 | 0.00 | 9 | 1008.9 |
| 20260503235904 | 90 | 228 | 7.0 | 14.8 | 0.00 | 0.00 | 0.00 | 9 | 1009.0 |
| 20260503235404 | 90 | 210 | 4.3 | 15.6 | 0.00 | 0.00 | 0.00 | 9 | 1009.0 |
| 20260503234904 | 90 | 238 | 7.8 | 15.6 | 0.00 | 0.00 | 0.00 | 10 | 1009.0 |
| 20260503234404 | 90 | 240 | 7.8 | 15.6 | 0.00 | 0.00 | 0.00 | 10 | 1009.0 |
| 20260503233904 | 90 | 234 | 6.1 | 12.2 | 0.00 | 0.00 | 0.00 | 10 | 1008.9 |
| 20260503232404 | 91 | 223 | 6.1 | 17.4 | 0.00 | 0.00 | 0.00 | 10 | 1008.8 |
| 20260503231904 | 91 | 221 | 6.1 | 17.4 | 0.00 | 0.00 | 0.00 | 10 | 1008.8 |
| 20260503231403 | 92 | 225 | 7.8 | 14.8 | 0.00 | 0.00 | 0.00 | 10 | 1008.8 |
| 20260503225904 | 92 | 237 | 5.2 | 13.0 | 0.00 | 0.00 | 0.00 | 10 | 1008.8 |
| 20260503225404 | 92 | 230 | 4.3 | 12.2 | 0.00 | 0.00 | 0.00 | 10 | 1008.7 |
| 20260503224904 | 92 | 225 | 3.5 | 14.8 | 0.00 | 0.00 | 0.00 | 11 | 1008.9 |
| 20260503224403 | 92 | 248 | 5.2 | 14.8 | 0.00 | 0.00 | 0.00 | 11 | 1009.0 |
| 20260503223903 | 92 | 222 | 7.0 | 14.8 | 0.00 | 0.00 | 0.00 | 11 | 1009.0 |